CAS-2T & KS-1Q

Last updated on Mon Sep 21 2026 00:03:14 GMT+0000 (Coordinated Universal Time)

1 41847U 16066G 26263.46500916 .00000852 00000+0 12847-3 0 9992 2 41847 98.3748 338.1016 0340837 200.2253 158.5161 14.44850780518558
UTC large
Height (km)
Speed (km/s)
/
Latitude / Longitude
Inclination (degrees)
Orbital Period (minutes)
Azimuth
Elevation
Range (km)
Doppler Factor

Next 0 passes for location: London (51.5072 / 0.1276)

No passes found over London.
CAS-2T & KS-1Q